sat.trackr.live / text

‹ back to catalog

STARLINK-31677

NORAD 59749 · 2024-090V

PAYLOAD ACTIVE UNKNOWN

§ Identity

Operator
Country
US
Launch date
2024-05-13
Launch site
AFETR
Launch vehicle
Mass (kg)
RCS (m²)

Purposes: comms

External: N2YO · Heavens-Above · Gunter

§ Orbital elements

Epoch: 2026-05-24T23:21:52.807968Z

Period
94.27 min
Inclination
43.0028°
Eccentricity
0.0001663
Mean motion
15.27586291 rev/d
Perigee alt
481.9 km
Apogee alt
484.2 km
Semi-major
6,861.2 km
B*
-4.3884e-5
RAAN
112.9476°
Arg perigee
273.3032°
Mean anomaly
86.7630°
Rev number
11,509

§ Raw data

STARLINK-316771 59749U 24090V   26144.97352787 -.00001470  00000+0 -43884-4 0  99982 59749  43.0028 112.9476 0001663 273.3032  86.7630 15.27586291115091

JSON: /api/v1/satellites/59749 · /tle

For live sub-satellite position, see the globe view (requires WebGL).

§ Visibility from observer

Set your observer location to see the next 7 days of passes ≥ 10°. The values pass through the URL so the page stays shareable.

No JS? Fill the form by hand. The geolocation button needs JavaScript.